WTL503 TNCA-MUHA

Flight info

Callsign WTL503
Flight time N/A
Altitude 32000
Route AMBIN1F AMBIN UL332 MLY/N0452F330 UG633 SIA/N0446F320 UL332 UCL
Aircraft B739/M-SDE2E3FGHIRWXY/LB1

Departure

Time N/A
Airport Queen Beatrix International Airport (TNCA)

Arrival

Time 2026-05-03 22:40
Airport José Martí International Airport (MUHA)
Time Latitude Longitude Altitude Speed Heading
2026-05-03 21:55 19.79797 -79.40432 31995 ft 452 kts 310°
2026-05-03 21:55 19.84048 -79.45341 31995 ft 451 kts 310°
2026-05-03 21:56 19.88278 -79.50229 31995 ft 451 kts 310°
2026-05-03 21:56 19.92536 -79.55154 31997 ft 451 kts 310°
2026-05-03 21:57 19.96788 -79.60077 31995 ft 451 kts 310°
2026-05-03 21:57 20.01005 -79.64961 31992 ft 451 kts 310°
2026-05-03 21:58 20.05260 -79.69884 31994 ft 451 kts 310°
2026-05-03 21:58 20.09522 -79.74818 31993 ft 451 kts 310°
2026-05-03 21:59 20.13769 -79.79742 31993 ft 451 kts 310°
2026-05-03 21:59 20.18013 -79.84667 31996 ft 450 kts 310°
2026-05-03 22:00 20.22229 -79.89562 31994 ft 450 kts 310°
2026-05-03 22:00 20.26462 -79.94483 31997 ft 449 kts 310°
2026-05-03 22:01 20.30687 -79.99399 31993 ft 449 kts 310°
2026-05-03 22:01 20.34908 -80.04315 31996 ft 448 kts 310°
2026-05-03 22:02 20.39111 -80.09214 31993 ft 448 kts 309°
2026-05-03 22:02 20.43293 -80.14093 31993 ft 447 kts 309°
2026-05-03 22:03 20.47492 -80.18997 31991 ft 447 kts 309°
2026-05-03 22:03 20.51686 -80.23898 31993 ft 446 kts 309°
2026-05-03 22:04 20.55832 -80.28780 31993 ft 445 kts 309°
2026-05-03 22:04 20.60014 -80.33732 31995 ft 445 kts 309°
2026-05-03 22:05 20.64161 -80.38646 31998 ft 445 kts 309°
2026-05-03 22:05 20.68316 -80.43571 31996 ft 446 kts 309°
2026-05-03 22:06 20.72443 -80.48465 31997 ft 446 kts 309°
2026-05-03 22:06 20.76598 -80.53397 31995 ft 446 kts 309°
2026-05-03 22:07 20.80745 -80.58323 31995 ft 446 kts 309°
2026-05-03 22:07 20.84889 -80.63250 31996 ft 445 kts 309°
2026-05-03 22:08 20.89029 -80.68176 31996 ft 445 kts 309°
2026-05-03 22:08 20.93169 -80.73108 31995 ft 444 kts 309°
2026-05-03 22:09 20.97293 -80.78026 31995 ft 444 kts 309°
2026-05-03 22:10 21.03454 -80.85380 31996 ft 443 kts 309°
2026-05-03 22:10 21.07568 -80.90294 31994 ft 443 kts 309°
2026-05-03 22:11 21.11709 -80.95202 31996 ft 443 kts 309°
2026-05-03 22:11 21.15843 -81.00092 31996 ft 443 kts 309°
2026-05-03 22:12 21.19976 -81.04989 31998 ft 442 kts 309°
2026-05-03 22:12 21.24104 -81.09888 31998 ft 442 kts 309°
2026-05-03 22:13 21.28016 -81.14538 32001 ft 442 kts 309°
2026-05-03 22:13 21.32146 -81.19450 31999 ft 442 kts 309°
2026-05-03 22:14 21.36269 -81.24359 31997 ft 442 kts 309°
2026-05-03 22:14 21.40375 -81.29250 31989 ft 436 kts 309°
2026-05-03 22:15 21.44403 -81.34051 31976 ft 426 kts 308°
2026-05-03 22:15 21.48313 -81.38717 31997 ft 417 kts 308°
2026-05-03 22:16 21.52208 -81.43376 31686 ft 420 kts 308°
2026-05-03 22:16 21.54147 -81.45694 31411 ft 414 kts 308°
2026-05-03 22:16 21.56066 -81.47988 30956 ft 410 kts 308°
2026-05-03 22:16 21.57327 -81.49497 30633 ft 407 kts 308°
2026-05-03 22:17 21.59215 -81.51756 30142 ft 405 kts 308°
2026-05-03 22:17 21.61236 -81.53864 29530 ft 408 kts 321°
2026-05-03 22:17 21.63634 -81.55504 29024 ft 407 kts 325°
2026-05-03 22:17 21.66071 -81.57049 28491 ft 405 kts 326°
2026-05-03 22:18 21.68496 -81.58561 27983 ft 402 kts 326°
2026-05-03 22:18 21.70904 -81.60068 27485 ft 398 kts 326°
2026-05-03 22:18 21.73289 -81.61574 26991 ft 396 kts 326°
2026-05-03 22:18 21.75652 -81.63080 26511 ft 393 kts 325°
2026-05-03 22:19 21.77995 -81.64582 26029 ft 390 kts 325°
2026-05-03 22:19 21.80319 -81.66079 25538 ft 389 kts 325°
2026-05-03 22:19 21.82638 -81.67576 25048 ft 387 kts 325°
2026-05-03 22:19 21.84943 -81.69066 24560 ft 386 kts 326°
2026-05-03 22:20 21.87244 -81.70555 24080 ft 385 kts 326°
2026-05-03 22:20 21.89510 -81.72022 23600 ft 384 kts 326°
2026-05-03 22:20 21.91801 -81.73505 23048 ft 383 kts 326°
2026-05-03 22:20 21.94080 -81.74981 22556 ft 381 kts 326°
2026-05-03 22:21 21.96344 -81.76447 22067 ft 378 kts 326°
2026-05-03 22:21 21.98590 -81.77902 21589 ft 375 kts 326°
2026-05-03 22:21 22.00818 -81.79346 21131 ft 373 kts 326°
2026-05-03 22:21 22.03034 -81.80783 20671 ft 370 kts 326°
2026-05-03 22:22 22.05238 -81.82213 20209 ft 368 kts 326°
2026-05-03 22:22 22.07425 -81.83632 19740 ft 367 kts 326°
2026-05-03 22:22 22.09609 -81.85050 19288 ft 365 kts 326°
2026-05-03 22:22 22.11782 -81.86462 18824 ft 364 kts 326°
2026-05-03 22:23 22.13954 -81.87873 18360 ft 363 kts 326°
2026-05-03 22:23 22.16113 -81.89277 17855 ft 362 kts 326°
2026-05-03 22:23 22.18263 -81.90674 17369 ft 359 kts 326°
2026-05-03 22:23 22.20396 -81.92061 16923 ft 357 kts 326°
2026-05-03 22:24 22.22516 -81.93441 16473 ft 354 kts 326°
2026-05-03 22:24 22.24621 -81.94811 16031 ft 352 kts 326°
2026-05-03 22:24 22.26713 -81.96172 15596 ft 350 kts 326°
2026-05-03 22:24 22.28792 -81.97527 15162 ft 348 kts 326°
2026-05-03 22:25 22.30858 -81.98873 14716 ft 346 kts 326°
2026-05-03 22:25 22.32902 -82.00205 14284 ft 346 kts 327°
2026-05-03 22:25 22.34954 -82.01544 13847 ft 345 kts 327°
2026-05-03 22:25 22.37009 -82.02884 13368 ft 344 kts 327°
2026-05-03 22:26 22.39055 -82.04219 12921 ft 341 kts 327°
2026-05-03 22:26 22.41086 -82.05544 12482 ft 339 kts 327°
2026-05-03 22:26 22.43071 -82.06840 12062 ft 336 kts 327°
2026-05-03 22:26 22.45066 -82.08143 11643 ft 334 kts 327°
2026-05-03 22:27 22.47054 -82.09442 11227 ft 332 kts 327°
2026-05-03 22:27 22.49026 -82.10731 10811 ft 330 kts 327°
2026-05-03 22:27 22.50985 -82.12012 10432 ft 327 kts 327°
2026-05-03 22:27 22.52892 -82.13259 10276 ft 316 kts 327°
2026-05-03 22:28 22.54748 -82.14472 10121 ft 306 kts 327°
2026-05-03 22:28 22.56539 -82.15644 9963 ft 297 kts 327°
2026-05-03 22:28 22.58278 -82.16782 9899 ft 284 kts 327°
2026-05-03 22:28 22.59998 -82.17910 9352 ft 290 kts 327°
2026-05-03 22:29 22.61328 -82.18782 9026 ft 291 kts 327°
2026-05-03 22:29 22.63060 -82.19918 8677 ft 289 kts 327°
2026-05-03 22:29 22.64778 -82.21043 8341 ft 288 kts 326°
2026-05-03 22:29 22.66469 -82.22195 7991 ft 285 kts 319°
2026-05-03 22:30 22.67722 -82.23817 7665 ft 279 kts 297°
2026-05-03 22:30 22.68569 -82.25688 7363 ft 276 kts 293°
2026-05-03 22:30 22.69363 -82.27580 7047 ft 275 kts 292°
2026-05-03 22:30 22.70146 -82.29462 6724 ft 274 kts 292°
2026-05-03 22:31 22.70931 -82.31339 6404 ft 273 kts 292°
2026-05-03 22:31 22.71710 -82.33188 6058 ft 273 kts 292°
2026-05-03 22:31 22.72499 -82.35054 5718 ft 272 kts 293°
2026-05-03 22:31 22.73289 -82.36913 5393 ft 271 kts 292°
2026-05-03 22:32 22.74079 -82.38771 5056 ft 270 kts 293°
2026-05-03 22:32 22.74865 -82.40615 4732 ft 269 kts 292°
2026-05-03 22:32 22.75648 -82.42452 4403 ft 268 kts 292°
2026-05-03 22:32 22.76430 -82.44288 4068 ft 268 kts 292°
2026-05-03 22:33 22.77208 -82.46117 3729 ft 267 kts 292°
2026-05-03 22:33 22.77984 -82.47937 3490 ft 262 kts 293°
2026-05-03 22:33 22.78735 -82.49695 3382 ft 253 kts 293°
2026-05-03 22:33 22.79535 -82.51361 3232 ft 247 kts 307°
2026-05-03 22:34 22.80810 -82.52573 3144 ft 241 kts 323°
2026-05-03 22:34 22.82161 -82.53598 3024 ft 233 kts 322°
2026-05-03 22:34 22.83480 -82.54611 2780 ft 229 kts 322°
2026-05-03 22:34 22.84761 -82.55597 2488 ft 223 kts 322°
2026-05-03 22:35 22.86009 -82.56561 2256 ft 217 kts 324°
2026-05-03 22:35 22.87389 -82.57091 2023 ft 208 kts
2026-05-03 22:35 22.88619 -82.56516 1976 ft 186 kts 51°
2026-05-03 22:35 22.89336 -82.55393 2016 ft 186 kts 55°
2026-05-03 22:36 22.90131 -82.54213 2007 ft 195 kts 54°
2026-05-03 22:36 22.90912 -82.53044 1969 ft 184 kts 56°
2026-05-03 22:36 22.91624 -82.51966 1967 ft 171 kts 56°
2026-05-03 22:36 22.92311 -82.50921 2004 ft 172 kts 56°
2026-05-03 22:37 22.93018 -82.49844 1827 ft 178 kts 55°
2026-05-03 22:37 22.93729 -82.48767 1594 ft 173 kts 55°
2026-05-03 22:37 22.94412 -82.47731 1386 ft 165 kts 56°
2026-05-03 22:37 22.95062 -82.46745 1162 ft 155 kts 56°
2026-05-03 22:38 22.95686 -82.45796 983 ft 154 kts 54°
2026-05-03 22:38 22.96308 -82.44867 763 ft 150 kts 52°
2026-05-03 22:38 22.96898 -82.43953 626 ft 146 kts 51°
2026-05-03 22:38 22.97457 -82.43083 374 ft 139 kts 50°
2026-05-03 22:39 22.98018 -82.42247 223 ft 135 kts 50°
2026-05-03 22:39 22.98524 -82.41493 222 ft 105 kts 54°
2026-05-03 22:39 22.98863 -82.40984 214 ft 58 kts 54°
2026-05-03 22:39 22.99086 -82.40648 217 ft 51 kts 54°
2026-05-03 22:40 22.99200 -82.40477 214 ft 24 kts 54°
2026-05-03 22:40 22.99340 -82.40410 218 ft 23 kts
2026-05-03 22:40 22.99395 -82.40401 219 ft 0 kts
2026-05-03 22:41 22.99400 -82.40400 219 ft 2 kts
2026-05-03 22:41 22.99419 -82.40399 219 ft 3 kts 357°
2026-05-03 22:41 22.99426 -82.40400 217 ft 0 kts 357°
2026-05-03 22:42 22.99431 -82.40405 219 ft 2 kts 313°
2026-05-03 22:42 22.99429 -82.40452 221 ft 12 kts 241°
2026-05-03 22:42 22.99379 -82.40527 221 ft 12 kts 234°
2026-05-03 22:43 22.99330 -82.40601 222 ft 12 kts 233°
2026-05-03 22:43 22.99278 -82.40679 220 ft 14 kts 234°
2026-05-03 22:43 22.99249 -82.40765 215 ft 12 kts 294°
2026-05-03 22:43 22.99312 -82.40822 220 ft 12 kts 325°
2026-05-03 22:44 22.99384 -82.40822 218 ft 12 kts 45°
2026-05-03 22:44 22.99417 -82.40779 215 ft 0 kts 52°
2026-05-03 22:44 22.99427 -82.40764 218 ft 5 kts 54°
2026-05-03 22:44 22.99446 -82.40732 222 ft 5 kts 56°
2026-05-03 22:45 22.99470 -82.40704 217 ft 5 kts 28°
2026-05-03 22:45 22.99503 -82.40710 218 ft 5 kts 332°
2026-05-03 22:45 22.99533 -82.40729 217 ft 5 kts 333°
2026-05-03 22:45 22.99566 -82.40728 217 ft 5 kts 19°
2026-05-03 22:46 22.99596 -82.40711 219 ft 5 kts 29°
2026-05-03 22:46 22.99611 -82.40702 219 ft 0 kts 31°
2026-05-03 22:46 22.99613 -82.40701 219 ft 0 kts 30°